Regional Weather Roundup
Issued by NWS

Home | Current Version | Previous Version | Text Only | Print | Product List | Glossary Off
Versions: 1 2 3 4 5 6 7 8 9 10 11 12 13 14 15 16 17 18 19 20 21 22 23 24 25 26 27 28

000
ASUS45 KCYS 160010
RWRWY

WYOMING REGIONAL WEATHER ROUNDUP
NATIONAL WEATHER SERVICE CHEYENNE WY
500 PM MST MON JAN 15 2018

NOTE:  "FAIR" INDICATES FEW OR NO CLOUDS BELOW 12,000 FEET
WITH NO SIGNIFICANT WEATHER AND/OR OBSTRUCTIONS TO VISIBILITY.

WYZ001-160100-
YELLOWSTONE NATIONAL PARK

CITY           SKY/WX    TMP DP  RH WIND       PRES   REMARKS
LK YELLOWSTONE   N/A     18  13  80 CALM      30.37R
6HR MIN TEMP:  17; 6HR MAX TEMP:  25;

W YELLOWSTONE  NOT AVBL

$$
WYZ002>013-054>058-071-098>099-160100-
NORTHERN WYOMING

CITY           SKY/WX    TMP DP  RH WIND       PRES   REMARKS
JACKSON        FOG       22  18  85 CALM      30.37S VSB 1/4
CODY           FAIR      19  12  74 E6        30.49S WCI  11
GREYBULL       FAIR      18   8  65 SE5       30.56S WCI  11
6HR MIN TEMP:  18; 6HR MAX TEMP:  23;

WORLAND        FAIR      11   6  81 E5        30.54F WCI   3
6HR MIN TEMP:  11; 6HR MAX TEMP:  21;

SHERIDAN       FAIR      -3  -7  82 NW6       30.59S WCI -15
6HR MIN TEMP:  -3; 6HR MAX TEMP:  10;

BUFFALO        FAIR       8   1  73 SE9       30.51F WCI  -5
6HR MIN TEMP:   4; 6HR MAX TEMP:  10;

GILLETTE       FAIR     -15 -19  82 CALM      30.58R
HULETT         FAIR       0  -6  78 MISG      30.59S
NEWCASTLE      FAIR      -4  -9  77 NW9       30.59S WCI -20

$$
WYZ014>020-022>026-101>103-160100-
CENTRAL WYOMING

CITY           SKY/WX    TMP DP  RH WIND       PRES   REMARKS
BIG PINEY      CLOUDY    28  21  75 S3        30.38S
6HR MIN TEMP:  25; 6HR MAX TEMP:  29;

PINEDALE       CLOUDY    27  19  74 SE7       30.39S WCI  19
DUBOIS         FAIR      19  18  93 S8        30.37S WCI   9
LANDER         CLOUDY    24  17  74 E5        30.44F WCI  18
6HR MIN TEMP:  22; 6HR MAX TEMP:  25;

RIVERTON       FAIR      21   9  59 CALM      30.46F
6HR MIN TEMP:  22; 6HR MAX TEMP:  26;

CASPER         FAIR      11   2  67 S5        30.49S WCI   3
6HR MIN TEMP:   9; 6HR MAX TEMP:  18;

DOUGLAS        FAIR       7  -5  57 N8        30.53S WCI  -6
6HR MIN TEMP:   7; 6HR MAX TEMP:  16;


$$
WYZ021-027>030-104>119-160100-
SOUTHERN WYOMING

CITY           SKY/WX    TMP DP  RH WIND       PRES   REMARKS
EVANSTON       FAIR      31  23  72 E14       30.32R WCI  21
6HR MIN TEMP:  31; 6HR MAX TEMP:  38;

FORT BRIDGER   FAIR      32  20  63 NE10      30.38R WCI  23
ROCK SPRINGS   FAIR      23  13  65 E7        30.40R WCI  15
6HR MIN TEMP:  23; 6HR MAX TEMP:  29;

DIXON            N/A     28   7  41 N9        30.41R WCI  19
RAWLINS        FAIR      22   2  42 N5        30.40R WCI  16
6HR MIN TEMP:  22; 6HR MAX TEMP:  28;

SARATOGA       FAIR      19  -9  27 W10       30.40R WCI   8
LARAMIE        FAIR      14  -9  35 N9        30.35R WCI   2
6HR MIN TEMP:  14; 6HR MAX TEMP:  22;

CHEYENNE       FAIR       9  -2  61 N13G21    30.40R WCI  -7
6HR MIN TEMP:   9; 6HR MAX TEMP:  15;

TORRINGTON     FAIR      11  -1  58 N8        30.56R WCI  -1
6HR MIN TEMP:  11; 6HR MAX TEMP:  16;


$$




USA.gov is the U.S. government's official web portal to all federal, state and local government web resources and services.